Location: Alpine Heights
(32.8181°N, 116.7809°W)
Time: 00:36:26
(UTC+00:00)

Landsat 5 - Pass Details

Date: 14 April 2021
Orbit: 528 x 654 km, 98.2° (Epoch: 15 May)

Event Time Altitude Azimuth Distance (km) Brightness Sun altitude
Rises 12:40:35 0° 176° (S) 2,869 6.8 -8.5°
Reaches altitude 10° 12:42:45 10° 180° (S) 1,986 6.0 -8.1°
Maximum altitude 12:47:01 58° 259° (W) 741 3.7 -7.2°
Drops below altitude 10° 12:51:27 10° 339° (NNW) 2,052 6.2 -6.3°
Sets 12:53:43 0° 343° (NNW) 2,974 7.1 -5.8°
